Location: Aldenham
(51.6667°N, 0.3500°W)
Time: 02:49:14
(UTC+00:00)

A-11 Canister half - Pass Details

Date: 16 February 2026
Orbit: 1512 x 1687 km, 47.2° (Epoch: 7 March)

Event Time Altitude Azimuth Distance (km) Brightness Sun altitude
Rises 01:42:33 0° 275° (W) 4,901 - -46.9°
Reaches altitude 10° 01:45:47 10° 273° (W) 3,894 - -46.7°
Maximum altitude 01:55:30 62° 196° (SSW) 1,774 - -45.8°
Exits shadow 02:03:53 14° 120° (ESE) 3,464 10.9 -45.0°
Drops below altitude 10° 02:04:50 10° 119° (ESE) 3,752 11.1 -44.9°
Sets 02:07:53 0° 116° (ESE) 4,714 11.7 -44.6°
